User: anonymous   Login
Location: Unspecified
(0.0000°N, 0.0000°E)
Time: 04:08:45
(UTC+02:00)
Language:

Hubble Space Telescope - Orbit

View from above orbital plane
View from above orbital plane
View from above satellite
View from above satellite

Ground track
Ground track

The orbit data is extracted from the following two-line orbital elements,

1 20580U 90037B   16210.51861164  .00000594  00000-0  25971-4 0  9992
2 20580  28.4709 345.7645 0002617 295.2691 130.6048 15.08436935241352
Epoch (UTC): 28 July 2016 12:26:48
Eccentricity: 0.0002617
inclination: 28.4709°
perigee height: 539 km
apogee height: 543 km
right ascension of ascending node: 345.7645°
argument of perigee: 295.2691°
revolutions per day: 15.08436935
mean anomaly at epoch: 130.6048°
orbit number at epoch: 24135

The dashed part of the orbit path shows where the satellite is in the earth's shadow,  

DLR